SWA862 KSAN-KPHX

Flight info

Callsign SWA862
Flight time 0h 54m
Altitude 37000
Route ZZOOO4 HOGGZ HYDRR1
Aircraft B738/M-SDE2E3FGHIRWXY/LB1

Departure

Time 2026-04-20 05:44
Airport San Diego International Airport (KSAN)

Arrival

Time 2026-04-20 06:38
Airport Phoenix Sky Harbor International Airport (KPHX)
Time Latitude Longitude Altitude Speed Heading
2026-04-20 05:15 32.73346 -117.20061 27 ft 0 kts 263°
2026-04-20 05:27 32.73346 -117.20058 27 ft 2 kts 263°
2026-04-20 05:27 32.73348 -117.20040 27 ft 2 kts 263°
2026-04-20 05:27 32.73350 -117.20022 27 ft 2 kts 271°
2026-04-20 05:27 32.73346 -117.20005 27 ft 2 kts 306°
2026-04-20 05:28 32.73334 -117.19993 27 ft 2 kts 334°
2026-04-20 05:28 32.73319 -117.19988 27 ft 2 kts
2026-04-20 05:28 32.73313 -117.19989 27 ft 1 kts 16°
2026-04-20 05:28 32.73309 -117.19991 27 ft 0 kts 12°
2026-04-20 05:33 32.73311 -117.19990 27 ft 1 kts 12°
2026-04-20 05:33 32.73313 -117.19989 27 ft 1 kts 12°
2026-04-20 05:34 32.73324 -117.19987 27 ft 2 kts 12°
2026-04-20 05:34 32.73414 -117.19963 27 ft 12 kts 12°
2026-04-20 05:35 32.73474 -117.19910 27 ft 10 kts 79°
2026-04-20 05:35 32.73462 -117.19827 27 ft 9 kts 104°
2026-04-20 05:35 32.73443 -117.19745 27 ft 11 kts 106°
2026-04-20 05:35 32.73415 -117.19633 27 ft 16 kts 107°
2026-04-20 05:36 32.73381 -117.19495 27 ft 16 kts 106°
2026-04-20 05:36 32.73349 -117.19365 27 ft 15 kts 105°
2026-04-20 05:36 32.73321 -117.19244 27 ft 14 kts 106°
2026-04-20 05:36 32.73294 -117.19133 27 ft 13 kts 106°
2026-04-20 05:37 32.73269 -117.19030 27 ft 12 kts 106°
2026-04-20 05:37 32.73239 -117.18909 27 ft 17 kts 106°
2026-04-20 05:37 32.73209 -117.18789 27 ft 20 kts 107°
2026-04-20 05:37 32.73206 -117.18778 27 ft 20 kts 107°
2026-04-20 05:38 32.73196 -117.18735 27 ft 20 kts 106°
2026-04-20 05:38 32.73157 -117.18578 27 ft 19 kts 106°
2026-04-20 05:38 32.73121 -117.18430 27 ft 17 kts 105°
2026-04-20 05:38 32.73089 -117.18292 27 ft 16 kts 105°
2026-04-20 05:39 32.73059 -117.18163 27 ft 15 kts 106°
2026-04-20 05:39 32.73030 -117.18045 27 ft 14 kts 106°
2026-04-20 05:39 32.73003 -117.17935 27 ft 13 kts 106°
2026-04-20 05:39 32.72978 -117.17834 27 ft 12 kts 106°
2026-04-20 05:40 32.72955 -117.17742 27 ft 10 kts 107°
2026-04-20 05:40 32.72956 -117.17660 27 ft 9 kts 74°
2026-04-20 05:40 32.72979 -117.17593 27 ft 7 kts 46°
2026-04-20 05:40 32.73021 -117.17599 27 ft 6 kts 306°
2026-04-20 05:41 32.73027 -117.17615 27 ft 0 kts 287°
2026-04-20 05:43 32.73034 -117.17643 27 ft 24 kts 287°
2026-04-20 05:44 32.73165 -117.18188 27 ft 109 kts 285°
2026-04-20 05:44 32.73445 -117.19357 38 ft 177 kts 285°
2026-04-20 05:44 32.73801 -117.20751 965 ft 174 kts 288°
2026-04-20 05:44 32.74156 -117.22063 1797 ft 173 kts 288°
2026-04-20 05:45 32.74525 -117.23547 2266 ft 193 kts 286°
2026-04-20 05:45 32.74913 -117.25159 2840 ft 208 kts 287°
2026-04-20 05:45 32.75334 -117.26872 3395 ft 225 kts 285°
2026-04-20 05:45 32.75746 -117.28712 3991 ft 240 kts 284°
2026-04-20 05:46 32.76208 -117.30743 4727 ft 253 kts 284°
2026-04-20 05:46 32.76642 -117.32741 5675 ft 253 kts 276°
2026-04-20 05:46 32.76523 -117.34805 6528 ft 252 kts 249°
2026-04-20 05:46 32.75718 -117.36642 7354 ft 254 kts 231°
2026-04-20 05:47 32.74517 -117.38203 8189 ft 255 kts 218°
2026-04-20 05:47 32.72976 -117.39259 8950 ft 258 kts 194°
2026-04-20 05:47 32.71216 -117.39471 9801 ft 256 kts 175°
2026-04-20 05:47 32.69442 -117.39081 10557 ft 261 kts 161°
2026-04-20 05:48 32.67858 -117.38063 11327 ft 265 kts 139°
2026-04-20 05:48 32.66716 -117.36324 12068 ft 271 kts 118°
2026-04-20 05:48 32.65989 -117.34230 12756 ft 278 kts 112°
2026-04-20 05:48 32.65356 -117.32013 13442 ft 284 kts 107°
2026-04-20 05:49 32.65146 -117.29611 13830 ft 304 kts 89°
2026-04-20 05:49 32.65329 -117.27027 14262 ft 319 kts 85°
2026-04-20 05:49 32.65582 -117.24345 14662 ft 335 kts 86°
2026-04-20 05:49 32.65807 -117.21480 15046 ft 350 kts 87°
2026-04-20 05:50 32.65986 -117.18536 15411 ft 366 kts 88°
2026-04-20 05:50 32.66143 -117.15456 15763 ft 381 kts 88°
2026-04-20 05:50 32.66297 -117.12207 16092 ft 396 kts 88°
2026-04-20 05:50 32.66452 -117.08888 16749 ft 400 kts 88°
2026-04-20 05:51 32.66611 -117.05547 17352 ft 406 kts 88°
2026-04-20 05:51 32.66773 -117.02192 17938 ft 412 kts 88°
2026-04-20 05:51 32.66939 -116.98747 18562 ft 417 kts 87°
2026-04-20 05:51 32.67103 -116.95321 19199 ft 420 kts 87°
2026-04-20 05:52 32.67268 -116.91846 19832 ft 424 kts 87°
2026-04-20 05:52 32.67437 -116.88284 20429 ft 429 kts 87°
2026-04-20 05:52 32.67602 -116.84758 20988 ft 433 kts 87°
2026-04-20 05:52 32.67769 -116.81163 21608 ft 437 kts 86°
2026-04-20 05:53 32.67937 -116.77525 22162 ft 440 kts 86°
2026-04-20 05:53 32.68106 -116.73869 22762 ft 443 kts 86°
2026-04-20 05:53 32.68272 -116.70229 23286 ft 447 kts 86°
2026-04-20 05:53 32.68442 -116.66493 23726 ft 453 kts 86°
2026-04-20 05:54 32.68610 -116.62762 24331 ft 455 kts 86°
2026-04-20 05:54 32.68780 -116.58946 24713 ft 462 kts 86°
2026-04-20 05:54 32.68947 -116.55093 25280 ft 464 kts 85°
2026-04-20 05:54 32.69115 -116.51263 25776 ft 468 kts 85°
2026-04-20 05:55 32.69289 -116.47395 26270 ft 471 kts 85°
2026-04-20 05:55 32.69465 -116.43448 26768 ft 475 kts 85°
2026-04-20 05:55 32.69636 -116.39517 27216 ft 478 kts 85°
2026-04-20 05:55 32.69804 -116.35571 27658 ft 482 kts 85°
2026-04-20 05:56 32.69970 -116.31587 28156 ft 484 kts 85°
2026-04-20 05:56 32.70139 -116.27550 28525 ft 488 kts 85°
2026-04-20 05:56 32.70308 -116.23522 29019 ft 490 kts 85°
2026-04-20 05:56 32.70474 -116.19527 29719 ft 486 kts 84°
2026-04-20 05:57 32.70639 -116.15494 30342 ft 484 kts 84°
2026-04-20 05:57 32.70804 -116.11503 30914 ft 482 kts 84°
2026-04-20 05:57 32.70982 -116.07505 31430 ft 481 kts 84°
2026-04-20 05:57 32.71150 -116.03562 31971 ft 480 kts 85°
2026-04-20 05:58 32.71311 -115.99551 32450 ft 479 kts 85°
2026-04-20 05:58 32.71464 -115.95591 32941 ft 478 kts 85°
2026-04-20 05:58 32.71613 -115.91641 33395 ft 477 kts 85°
2026-04-20 05:58 32.71763 -115.87662 33829 ft 477 kts 85°
2026-04-20 05:59 32.71912 -115.83734 34177 ft 476 kts 86°
2026-04-20 05:59 32.72060 -115.79808 34440 ft 478 kts 86°
2026-04-20 05:59 32.72210 -115.75827 34708 ft 478 kts 86°
2026-04-20 05:59 32.72359 -115.71860 34971 ft 480 kts 86°
2026-04-20 06:00 32.72506 -115.67924 35245 ft 480 kts 86°
2026-04-20 06:00 32.72655 -115.63927 35496 ft 481 kts 87°
2026-04-20 06:00 32.72802 -115.59969 35701 ft 483 kts 87°
2026-04-20 06:00 32.72948 -115.55972 35997 ft 483 kts 87°
2026-04-20 06:01 32.73093 -115.51959 36178 ft 486 kts 88°
2026-04-20 06:01 32.73239 -115.47911 36441 ft 487 kts 88°
2026-04-20 06:01 32.73381 -115.43914 36693 ft 487 kts 88°
2026-04-20 06:01 32.73525 -115.39831 36865 ft 490 kts 88°
2026-04-20 06:02 32.73804 -115.31736 36870 ft 491 kts 89°
2026-04-20 06:02 32.74078 -115.23674 36880 ft 487 kts 89°
2026-04-20 06:03 32.74349 -115.15588 36870 ft 489 kts 89°
2026-04-20 06:03 32.74616 -115.07460 36871 ft 491 kts 89°
2026-04-20 06:04 32.74878 -114.99376 36870 ft 489 kts 89°
2026-04-20 06:04 32.75132 -114.91286 36874 ft 489 kts 89°
2026-04-20 06:05 32.75382 -114.83175 36884 ft 490 kts 89°
2026-04-20 06:05 32.75630 -114.75104 36880 ft 490 kts 89°
2026-04-20 06:06 32.75867 -114.66984 36880 ft 491 kts 90°
2026-04-20 06:06 32.76103 -114.58794 36883 ft 492 kts 90°
2026-04-20 06:07 32.76333 -114.50715 36880 ft 490 kts 89°
2026-04-20 06:07 32.76561 -114.42583 36874 ft 490 kts 90°
2026-04-20 06:08 32.76783 -114.34433 36890 ft 491 kts 90°
2026-04-20 06:08 32.76998 -114.26334 36894 ft 490 kts 90°
2026-04-20 06:09 32.77206 -114.18203 36910 ft 492 kts 90°
2026-04-20 06:09 32.77412 -114.10106 36623 ft 486 kts 90°
2026-04-20 06:10 32.77576 -114.06135 36091 ft 486 kts 87°
2026-04-20 06:10 32.77887 -114.02096 35391 ft 488 kts 85°
2026-04-20 06:10 32.78295 -113.98080 34626 ft 492 kts 83°
2026-04-20 06:10 32.78755 -113.94036 33805 ft 496 kts 82°
2026-04-20 06:11 32.79238 -113.89953 32974 ft 499 kts 82°
2026-04-20 06:11 32.79722 -113.85886 32077 ft 499 kts 82°
2026-04-20 06:11 32.80195 -113.81846 31216 ft 490 kts 83°
2026-04-20 06:11 32.80650 -113.77875 30580 ft 477 kts 83°
2026-04-20 06:12 32.81159 -113.74036 29918 ft 467 kts 79°
2026-04-20 06:12 32.82014 -113.70335 29196 ft 457 kts 70°
2026-04-20 06:12 32.83400 -113.66987 28641 ft 444 kts 58°
2026-04-20 06:12 32.85202 -113.64014 28038 ft 434 kts 52°
2026-04-20 06:13 32.87118 -113.61280 27446 ft 423 kts 49°
2026-04-20 06:13 32.89061 -113.58661 26863 ft 415 kts 48°
2026-04-20 06:13 32.90998 -113.56106 26292 ft 415 kts 47°
2026-04-20 06:13 32.92952 -113.53537 25718 ft 420 kts 47°
2026-04-20 06:14 32.94918 -113.50941 25102 ft 426 kts 47°
2026-04-20 06:14 32.96894 -113.48312 24482 ft 424 kts 47°
2026-04-20 06:14 32.98864 -113.45679 23867 ft 421 kts 47°
2026-04-20 06:14 33.00817 -113.43057 23261 ft 419 kts 47°
2026-04-20 06:15 33.02734 -113.40474 22669 ft 416 kts 47°
2026-04-20 06:15 33.04652 -113.37885 22085 ft 414 kts 47°
2026-04-20 06:15 33.06559 -113.35307 21896 ft 401 kts 47°
2026-04-20 06:15 33.08369 -113.32860 21887 ft 388 kts 48°
2026-04-20 06:16 33.10145 -113.30460 21896 ft 386 kts 48°
2026-04-20 06:16 33.11930 -113.28046 21902 ft 396 kts 48°
2026-04-20 06:16 33.13806 -113.25511 21904 ft 404 kts 48°
2026-04-20 06:16 33.15641 -113.23030 21899 ft 404 kts 48°
2026-04-20 06:17 33.17514 -113.20493 21692 ft 400 kts 49°
2026-04-20 06:17 33.19334 -113.18026 21087 ft 400 kts 49°
2026-04-20 06:17 33.21183 -113.15518 20456 ft 399 kts 49°
2026-04-20 06:17 33.23033 -113.13006 19865 ft 398 kts 49°
2026-04-20 06:18 33.24829 -113.10497 19279 ft 395 kts 53°
2026-04-20 06:18 33.26321 -113.07753 18950 ft 385 kts 65°
2026-04-20 06:18 33.27204 -113.04801 18911 ft 366 kts 79°
2026-04-20 06:18 33.27553 -113.01875 18919 ft 351 kts 87°
2026-04-20 06:19 33.27697 -112.98969 18917 ft 345 kts 90°
2026-04-20 06:19 33.27768 -112.96113 18915 ft 349 kts 90°
2026-04-20 06:19 33.27821 -112.93163 18912 ft 357 kts 90°
2026-04-20 06:19 33.27879 -112.90144 18905 ft 361 kts 90°
2026-04-20 06:20 33.27943 -112.87131 18842 ft 356 kts 90°
2026-04-20 06:20 33.28007 -112.84214 18463 ft 352 kts 90°
2026-04-20 06:20 33.28088 -112.81335 18134 ft 339 kts 88°
2026-04-20 06:20 33.28280 -112.78565 17671 ft 332 kts 85°
2026-04-20 06:21 33.28560 -112.75838 17133 ft 327 kts 84°
2026-04-20 06:21 33.28854 -112.73189 17050 ft 313 kts 84°
2026-04-20 06:21 33.29131 -112.70576 16866 ft 315 kts 85°
2026-04-20 06:21 33.29391 -112.67946 16357 ft 318 kts 85°
2026-04-20 06:22 33.29638 -112.65327 15822 ft 321 kts 86°
2026-04-20 06:22 33.29886 -112.62669 15338 ft 321 kts 86°
2026-04-20 06:22 33.30135 -112.60001 14879 ft 319 kts 86°
2026-04-20 06:22 33.30378 -112.57391 14442 ft 313 kts 86°
2026-04-20 06:23 33.30618 -112.54829 14065 ft 303 kts 86°
2026-04-20 06:23 33.30848 -112.52348 13709 ft 297 kts 86°
2026-04-20 06:23 33.31074 -112.49880 13292 ft 295 kts 86°
2026-04-20 06:23 33.31297 -112.47451 12884 ft 293 kts 86°
2026-04-20 06:24 33.31521 -112.45003 12505 ft 291 kts 86°
2026-04-20 06:24 33.31741 -112.42614 12125 ft 289 kts 86°
2026-04-20 06:24 33.31961 -112.40215 11746 ft 287 kts 86°
2026-04-20 06:24 33.32176 -112.37866 11385 ft 284 kts 86°
2026-04-20 06:25 33.32394 -112.35478 11080 ft 281 kts 86°
2026-04-20 06:25 33.32601 -112.33204 11071 ft 276 kts 86°
2026-04-20 06:25 33.32811 -112.30894 11073 ft 283 kts 86°
2026-04-20 06:25 33.33029 -112.28487 11057 ft 287 kts 86°
2026-04-20 06:26 33.33242 -112.26144 10823 ft 283 kts 86°
2026-04-20 06:26 33.33456 -112.23799 10456 ft 282 kts 85°
2026-04-20 06:26 33.33667 -112.21478 10109 ft 279 kts 85°
2026-04-20 06:26 33.33873 -112.19199 9922 ft 271 kts 86°
2026-04-20 06:27 33.34077 -112.16937 9542 ft 271 kts 85°
2026-04-20 06:27 33.34276 -112.14716 9299 ft 266 kts 85°
2026-04-20 06:27 33.34470 -112.12565 9213 ft 254 kts 85°
2026-04-20 06:27 33.34659 -112.10478 9124 ft 243 kts 85°
2026-04-20 06:28 33.34771 -112.08509 9008 ft 233 kts 90°
2026-04-20 06:28 33.34766 -112.06554 8784 ft 230 kts 93°
2026-04-20 06:28 33.34718 -112.04615 8548 ft 233 kts 93°
2026-04-20 06:28 33.34674 -112.02647 8256 ft 238 kts 93°
2026-04-20 06:29 33.34645 -112.00636 7992 ft 237 kts 92°
2026-04-20 06:29 33.34624 -111.98659 7713 ft 236 kts 92°
2026-04-20 06:29 33.34600 -111.96692 7449 ft 234 kts 92°
2026-04-20 06:29 33.34575 -111.94734 7191 ft 233 kts 92°
2026-04-20 06:30 33.34553 -111.92790 7012 ft 229 kts 91°
2026-04-20 06:30 33.34583 -111.90876 6994 ft 227 kts 90°
2026-04-20 06:30 33.34641 -111.88953 6964 ft 236 kts 90°
2026-04-20 06:30 33.34697 -111.86941 6728 ft 246 kts 90°
2026-04-20 06:31 33.34748 -111.84872 6481 ft 245 kts 90°
2026-04-20 06:31 33.34813 -111.82843 6240 ft 242 kts 89°
2026-04-20 06:31 33.34898 -111.80833 5999 ft 239 kts 89°
2026-04-20 06:31 33.34988 -111.78828 5759 ft 237 kts 88°
2026-04-20 06:32 33.35074 -111.76862 5519 ft 235 kts 88°
2026-04-20 06:32 33.35326 -111.74895 5277 ft 237 kts 72°
2026-04-20 06:32 33.36111 -111.73181 5040 ft 238 kts 47°
2026-04-20 06:32 33.37423 -111.71982 4802 ft 235 kts 21°
2026-04-20 06:33 33.39043 -111.71734 4564 ft 234 kts 352°
2026-04-20 06:33 33.40614 -111.72294 4339 ft 233 kts 334°
2026-04-20 06:33 33.41895 -111.73470 4081 ft 234 kts 305°
2026-04-20 06:33 33.42567 -111.75227 4076 ft 231 kts 283°
2026-04-20 06:34 33.42793 -111.77153 4055 ft 235 kts 272°
2026-04-20 06:34 33.42837 -111.79103 4062 ft 229 kts 269°
2026-04-20 06:34 33.42852 -111.82722 3892 ft 207 kts 268°
2026-04-20 06:35 33.42857 -111.84415 3631 ft 203 kts 268°
2026-04-20 06:35 33.42862 -111.86096 3359 ft 193 kts 267°
2026-04-20 06:35 33.42867 -111.87637 3131 ft 175 kts 269°
2026-04-20 06:35 33.42870 -111.89024 2909 ft 156 kts 269°
2026-04-20 06:36 33.42871 -111.90273 2702 ft 147 kts 270°
2026-04-20 06:36 33.42873 -111.91503 2533 ft 149 kts 270°
2026-04-20 06:36 33.42874 -111.92767 2324 ft 152 kts 270°
2026-04-20 06:36 33.42877 -111.94049 2131 ft 152 kts 270°
2026-04-20 06:37 33.42878 -111.95316 1925 ft 153 kts 270°
2026-04-20 06:37 33.42880 -111.96596 1715 ft 154 kts 271°
2026-04-20 06:37 33.42885 -111.97885 1520 ft 154 kts 270°
2026-04-20 06:37 33.42877 -111.99161 1322 ft 153 kts 271°
2026-04-20 06:38 33.42881 -112.00447 1147 ft 150 kts 270°
2026-04-20 06:38 33.42890 -112.01449 1146 ft 86 kts 271°
2026-04-20 06:38 33.42892 -112.02009 1147 ft 50 kts 276°
2026-04-20 06:38 33.42975 -112.02165 1147 ft 10 kts 32°
2026-04-20 06:39 33.42995 -112.02092 1147 ft 8 kts 86°
2026-04-20 06:39 33.42995 -112.02026 1147 ft 7 kts 91°